DEGYM EDFG-EDFG

Flight info

Callsign DEGYM
Flight time 0h 15m
Altitude 2000
Route VFR
Aircraft C172/L-VGD/A

Departure

Time 2026-04-24 15:03
Airport Gelnhausen Airfield (EDFG)

Arrival

Time 2026-04-24 15:18
Airport Gelnhausen Airfield (EDFG)
Time Latitude Longitude Altitude Speed Heading
2026-04-24 15:01 50.19695 9.17367 424 ft 0 kts 256°
2026-04-24 15:02 50.19692 9.17328 426 ft 14 kts 266°
2026-04-24 15:02 50.19658 9.16989 421 ft 53 kts 261°
2026-04-24 15:02 50.19561 9.16251 491 ft 79 kts 261°
2026-04-24 15:02 50.19403 9.15368 693 ft 85 kts 256°
2026-04-24 15:03 50.19292 9.14767 816 ft 89 kts 259°
2026-04-24 15:03 50.19044 9.13486 1103 ft 95 kts 256°
2026-04-24 15:03 50.18800 9.12512 1347 ft 99 kts 248°
2026-04-24 15:03 50.18165 9.12265 1482 ft 111 kts 146°
2026-04-24 15:04 50.17548 9.13049 1618 ft 119 kts 137°
2026-04-24 15:04 50.17062 9.14027 1773 ft 111 kts 95°
2026-04-24 15:04 50.17140 9.15213 1819 ft 112 kts 75°
2026-04-24 15:04 50.17241 9.16022 1828 ft 115 kts 77°
2026-04-24 15:05 50.17405 9.17204 1811 ft 109 kts 65°
2026-04-24 15:05 50.17640 9.18304 1694 ft 103 kts 62°
2026-04-24 15:05 50.17899 9.19324 1619 ft 99 kts 63°
2026-04-24 15:05 50.18189 9.20274 1520 ft 97 kts 55°
2026-04-24 15:06 50.18536 9.21194 1435 ft 97 kts 51°
2026-04-24 15:06 50.19082 9.21467 1339 ft 85 kts 333°
2026-04-24 15:06 50.19484 9.20821 1166 ft 81 kts 309°
2026-04-24 15:06 50.19779 9.20100 988 ft 76 kts 303°
2026-04-24 15:07 50.19907 9.19331 826 ft 75 kts 263°
2026-04-24 15:07 50.19818 9.18566 691 ft 68 kts 268°
2026-04-24 15:07 50.19754 9.17861 536 ft 63 kts 269°
2026-04-24 15:07 50.19677 9.17195 427 ft 60 kts 262°
2026-04-24 15:08 50.19609 9.16531 468 ft 71 kts 261°
2026-04-24 15:08 50.19471 9.15703 580 ft 86 kts 259°
2026-04-24 15:08 50.19315 9.14798 791 ft 85 kts 258°
2026-04-24 15:08 50.19114 9.13921 997 ft 89 kts 251°
2026-04-24 15:09 50.18865 9.13034 1213 ft 92 kts 249°
2026-04-24 15:09 50.18514 9.12125 1345 ft 102 kts 218°
2026-04-24 15:09 50.17865 9.12247 1593 ft 106 kts 127°
2026-04-24 15:09 50.17495 9.13297 1671 ft 114 kts 117°
2026-04-24 15:10 50.17126 9.14406 1758 ft 116 kts 110°
2026-04-24 15:10 50.17119 9.15622 1802 ft 113 kts 75°
2026-04-24 15:10 50.17300 9.16816 1748 ft 112 kts 72°
2026-04-24 15:10 50.17510 9.17940 1701 ft 104 kts 66°
2026-04-24 15:11 50.17730 9.19007 1576 ft 104 kts 61°
2026-04-24 15:11 50.17985 9.20053 1466 ft 104 kts 63°
2026-04-24 15:11 50.18183 9.20737 1412 ft 103 kts 55°
2026-04-24 15:12 50.19424 9.20688 1072 ft 96 kts 311°
2026-04-24 15:12 50.19883 9.18991 811 ft 84 kts 268°
2026-04-24 15:12 50.19780 9.18180 667 ft 72 kts 269°
2026-04-24 15:13 50.19700 9.17397 570 ft 81 kts 263°
2026-04-24 15:13 50.19543 9.16502 723 ft 82 kts 257°
2026-04-24 15:13 50.19380 9.15674 906 ft 82 kts 257°
2026-04-24 15:13 50.19247 9.14799 1105 ft 82 kts 263°
2026-04-24 15:14 50.19106 9.13812 1173 ft 102 kts 258°
2026-04-24 15:14 50.18865 9.12758 1251 ft 106 kts 252°
2026-04-24 15:14 50.18318 9.12006 1269 ft 115 kts 184°
2026-04-24 15:14 50.17702 9.12624 1415 ft 108 kts 123°
2026-04-24 15:15 50.17317 9.13619 1552 ft 106 kts 116°
2026-04-24 15:15 50.17100 9.14712 1628 ft 106 kts 82°
2026-04-24 15:15 50.17210 9.15871 1680 ft 111 kts 75°
2026-04-24 15:15 50.17355 9.17073 1651 ft 114 kts 74°
2026-04-24 15:16 50.17526 9.18252 1605 ft 109 kts 69°
2026-04-24 15:16 50.17730 9.19336 1667 ft 102 kts 68°
2026-04-24 15:16 50.17962 9.20372 1512 ft 101 kts 64°
2026-04-24 15:16 50.18294 9.21251 1416 ft 89 kts 22°
2026-04-24 15:17 50.18874 9.21151 1281 ft 87 kts 329°
2026-04-24 15:17 50.19351 9.20551 1154 ft 86 kts 321°
2026-04-24 15:17 50.19789 9.19958 1014 ft 78 kts 314°
2026-04-24 15:17 50.19905 9.19198 886 ft 75 kts 264°
2026-04-24 15:18 50.19816 9.18438 724 ft 69 kts 269°
2026-04-24 15:18 50.19739 9.17708 532 ft 69 kts 268°
2026-04-24 15:18 50.19663 9.17013 425 ft 56 kts 265°
2026-04-24 15:18 50.19629 9.16601 423 ft 25 kts 259°
2026-04-24 15:19 50.19630 9.16435 422 ft 10 kts 342°
2026-04-24 15:19 50.19651 9.16429 421 ft 0 kts
2026-04-24 15:19 50.19652 9.16429 421 ft 0 kts
2026-04-24 15:19 50.19658 9.16438 422 ft 4 kts 68°
2026-04-24 15:20 50.19669 9.16521 422 ft 10 kts 79°
2026-04-24 15:20 50.19686 9.16646 422 ft 13 kts 75°
2026-04-24 15:20 50.19705 9.16804 421 ft 17 kts 77°
2026-04-24 15:20 50.19729 9.16997 421 ft 18 kts 79°
2026-04-24 15:21 50.19749 9.17159 422 ft 11 kts 78°
2026-04-24 15:21 50.19767 9.17235 424 ft 5 kts 31°
2026-04-24 15:21 50.19808 9.17263 424 ft 6 kts 17°
2026-04-24 15:22 50.19819 9.17319 426 ft 0 kts 158°
2026-04-24 15:33 50.19782 9.17341 423 ft 13 kts 161°
2026-04-24 15:33 50.19699 9.17354 421 ft 0 kts 255°
2026-04-24 15:34 50.19626 9.16666 425 ft 72 kts 263°
2026-04-24 15:35 50.19173 9.14193 1021 ft 82 kts 260°
2026-04-24 15:35 50.18674 9.12434 1371 ft 99 kts 234°
2026-04-24 15:35 50.18030 9.12221 1544 ft 109 kts 148°
2026-04-24 15:36 50.17567 9.13166 1653 ft 117 kts 110°
2026-04-24 15:36 50.17084 9.15657 1950 ft 121 kts 84°
2026-04-24 15:36 50.17172 9.16936 1941 ft 114 kts 76°
2026-04-24 15:37 50.17339 9.18083 1860 ft 107 kts 65°
2026-04-24 15:37 50.17571 9.19175 1704 ft 106 kts 66°
2026-04-24 15:37 50.17896 9.20175 1528 ft 103 kts 53°
2026-04-24 15:37 50.18262 9.21125 1473 ft 100 kts 52°
2026-04-24 15:38 50.18784 9.21637 1331 ft 93 kts 336°
2026-04-24 15:38 50.19283 9.20958 1163 ft 93 kts 316°
2026-04-24 15:38 50.19702 9.20256 1014 ft 82 kts 311°
2026-04-24 15:38 50.19940 9.19509 831 ft 79 kts 272°
2026-04-24 15:39 50.19840 9.18679 714 ft 74 kts 267°
2026-04-24 15:39 50.19761 9.17896 541 ft 71 kts 264°
2026-04-24 15:39 50.19682 9.17200 425 ft 61 kts 264°
2026-04-24 15:39 50.19587 9.16415 506 ft 82 kts 268°
2026-04-24 15:40 50.19481 9.15524 696 ft 86 kts 261°
2026-04-24 15:40 50.19323 9.14600 854 ft 88 kts 258°
2026-04-24 15:40 50.19075 9.13682 998 ft 100 kts 249°
2026-04-24 15:40 50.18755 9.12662 1175 ft 107 kts 247°
2026-04-24 15:41 50.18157 9.12008 1362 ft 115 kts 180°
2026-04-24 15:41 50.17630 9.12805 1579 ft 112 kts 108°
2026-04-24 15:41 50.17350 9.13989 1704 ft 123 kts 109°
2026-04-24 15:41 50.17052 9.15223 1774 ft 117 kts 101°
2026-04-24 15:42 50.17109 9.16410 1760 ft 108 kts 76°
2026-04-24 15:42 50.17263 9.17550 1687 ft 106 kts 69°
2026-04-24 15:42 50.17459 9.18646 1607 ft 104 kts 68°
2026-04-24 15:42 50.17659 9.19692 1496 ft 99 kts 65°
2026-04-24 15:43 50.17986 9.20596 1349 ft 95 kts 52°
2026-04-24 15:43 50.18411 9.21289 1274 ft 87 kts
2026-04-24 15:43 50.18942 9.20977 1158 ft 85 kts 332°
2026-04-24 15:43 50.19440 9.20503 1036 ft 82 kts 325°
2026-04-24 15:44 50.19827 9.19980 945 ft 66 kts 303°
2026-04-24 15:44 50.19923 9.19339 820 ft 63 kts 269°
2026-04-24 15:44 50.19864 9.18655 754 ft 65 kts 268°
2026-04-24 15:44 50.19768 9.17953 577 ft 66 kts 265°
2026-04-24 15:45 50.19692 9.17278 430 ft 59 kts 268°
2026-04-24 15:45 50.19647 9.16785 421 ft 30 kts 259°
2026-04-24 15:45 50.19626 9.16552 421 ft 14 kts 290°
2026-04-24 15:45 50.19673 9.16547 421 ft 5 kts 75°
2026-04-24 15:46 50.19675 9.16563 421 ft 0 kts 81°
2026-04-24 15:46 50.19682 9.16618 421 ft 11 kts 78°
2026-04-24 15:46 50.19700 9.16784 419 ft 18 kts 79°
2026-04-24 15:46 50.19721 9.16970 419 ft 16 kts 78°
2026-04-24 15:47 50.19739 9.17109 422 ft 10 kts 77°
2026-04-24 15:47 50.19765 9.17185 422 ft 7 kts 46°
2026-04-24 15:47 50.19805 9.17236 420 ft 7 kts 35°
2026-04-24 15:47 50.19831 9.17271 422 ft 1 kts 59°
2026-04-24 15:48 50.19824 9.17316 424 ft 7 kts 155°
2026-04-24 15:48 50.19814 9.17320 424 ft 0 kts 166°